QPF
0.02 0.01 0.01 0.02 0.03 0.06 0.05 0.02 0.01 0.02 0.03 0.04 0.06 0.09 0.12 0.12 0.10 0.09 0.07 0.03 0.02 0.02 0.02 0.02 0.01 0.01 0.01 0.02 0.01 0.01 0.01 0.03 0.05 0.06 0.07 0.07 0.07 0.06 0.04 0.01 0.00 0.00 0.00 0.01
0.02 0.01 0.02 0.03 0.03 0.03 0.03 0.02 0.02 0.02 0.03 0.04 0.06 0.09 0.11 0.14 0.13 0.11 0.08 0.04 0.03 0.02 0.02 0.02 0.01 0.01 0.01 0.02 0.02 0.01 0.01 0.01 0.01 0.01 0.01 0.01 0.01 0.01 0.01 0.00 0.00 0.00 0.00 0.00
0.03 0.02 0.04 0.07 0.06 0.05 0.03 0.03 0.03 0.03 0.03 0.04 0.06 0.08 0.05 0.03 0.04 0.04 0.03 0.04 0.04 0.03 0.03 0.02 0.01 0.01 0.01 0.01 0.02 0.02 0.02 0.01 0.01 0.01 0.00 0.00 0.00 0.00 0.01 0.00 0.00 0.00 0.00 0.00
0.05 0.04 0.07 0.09 0.07 0.05 0.04 0.05 0.04 0.02 0.02 0.03 0.04 0.04 0.04 0.03 0.02 0.02 0.04 0.05 0.06 0.05 0.03 0.02 0.01 0.01 0.01 0.01 0.01 0.01 0.00 0.00 0.00 0.00 0.00 0.00 0.00 0.00 0.01 0.00 0.00 0.00 0.00 0.00
0.05 0.07 0.10 0.08 0.06 0.05 0.04 0.04 0.02 0.02 0.03 0.03 0.03 0.04 0.04 0.05 0.04 0.04 0.05 0.04 0.04 0.03 0.02 0.01 0.01 0.02 0.02 0.02 0.01 0.01 0.00 0.00 0.01 0.00 0.00 0.00 0.00 0.00 0.00 0.01 0.01 0.01 0.01 0.01
0.05 0.07 0.09 0.07 0.04 0.03 0.02 0.03 0.02 0.02 0.02 0.02 0.03 0.03 0.04 0.05 0.04 0.05 0.05 0.05 0.04 0.03 0.01 0.01 0.02 0.02 0.02 0.02 0.01 0.01 0.01 0.01 0.01 0.00 0.01 0.00 0.00 0.00 0.00 0.00 0.01 0.01 0.02 0.02
0.07 0.07 0.08 0.04 0.03 0.02 0.04 0.03 0.02 0.02 0.02 0.01 0.01 0.01 0.02 0.02 0.02 0.03 0.03 0.04 0.04 0.04 0.04 0.03 0.03 0.03 0.03 0.02 0.02 0.01 0.01 0.01 0.01 0.00 0.00 0.00 0.00 0.00 0.00 0.00 0.01 0.01 0.01 0.01
0.07 0.07 0.06 0.03 0.03 0.04 0.03 0.02 0.02 0.03 0.02 0.01 0.01 0.00 0.00 0.01 0.01 0.01 0.01 0.02 0.03 0.04 0.04 0.04 0.04 0.03 0.03 0.02 0.02 0.02 0.02 0.02 0.01 0.01 0.01 0.01 0.01 0.00 0.00 0.00 0.00 0.00 0.01 0.01
0.06 0.06 0.04 0.03 0.02 0.02 0.03 0.03 0.02 0.03 0.02 0.01 0.00 0.00 0.00 0.01 0.01 0.01 0.01 0.01 0.01 0.01 0.02 0.03 0.04 0.04 0.04 0.03 0.03 0.02 0.02 0.02 0.01 0.01 0.01 0.00 0.00 0.00 0.00 0.00 0.00 0.00 0.01 0.01
0.03 0.02 0.02 0.02 0.02 0.01 0.01 0.02 0.02 0.02 0.01 0.01 0.01 0.00 0.01 0.01 0.01 0.01 0.01 0.01 0.01 0.01 0.01 0.02 0.02 0.02 0.02 0.02 0.02 0.02 0.01 0.01 0.01 0.00 0.00 0.00 0.00 0.00 0.00 0.00 0.00 0.00 0.00 0.00
0.02 0.01 0.01 0.01 0.01 0.01 0.01 0.02 0.02 0.02 0.01 0.01 0.01 0.01 0.01 0.01 0.00 0.00 0.01 0.01 0.01 0.01 0.01 0.01 0.02 0.02 0.01 0.01 0.01 0.01 0.01 0.01 0.01 0.01 0.00 0.00 0.00 0.00 0.00 0.00 0.00 0.00 0.00 0.00
0.01 0.01 0.01 0.01 0.01 0.01 0.02 0.03 0.02 0.02 0.01 0.00 0.01 0.01 0.01 0.00 0.00 0.01 0.01 0.02 0.02 0.02 0.02 0.02 0.02 0.02 0.02 0.01 0.01 0.01 0.01 0.01 0.01 0.01 0.01 0.00 0.00 0.00 0.00 0.00 0.00 0.00 0.00 0.00
0.00 0.00 0.01 0.01 0.00 0.00 0.02 0.02 0.02 0.01 0.01 0.01 0.01 0.01 0.01 0.00 0.01 0.01 0.01 0.02 0.03 0.03 0.02 0.02 0.02 0.01 0.01 0.01 0.01 0.01 0.01 0.01 0.00 0.00 0.01 0.01 0.00 0.00 0.00 0.00 0.00 0.00 0.00 0.00
0.00 0.00 0.00 0.00 0.00 0.00 0.01 0.01 0.01 0.02 0.01 0.01 0.01 0.01 0.00 0.00 0.01 0.01 0.01 0.01 0.02 0.02 0.01 0.01 0.01 0.01 0.01 0.01 0.01 0.01 0.01 0.01 0.00 0.00 0.00 0.00 0.00 0.00 0.00 0.00 0.00 0.00 0.00 0.00
0.00 0.00 0.00 0.00 0.00 0.00 0.00 0.00 0.01 0.01 0.01 0.00 0.00 0.00 0.00 0.01 0.01 0.01 0.01 0.00 0.00 0.00 0.01 0.01 0.00 0.01 0.01 0.00 0.00 0.00 0.00 0.00 0.00 0.00 0.00 0.00 0.00 0.00 0.00 0.00 0.00 0.00 0.00 0.00
0.00 0.00 0.00 0.00 0.00 0.00 0.00 0.00 0.01 0.01 0.01 0.00 0.00 0.00 0.00 0.00 0.00 0.00 0.00 0.00 0.00 0.00 0.00 0.00 0.00 0.01 0.01 0.01 0.01 0.01 0.00 0.00 0.00 0.00 0.00 0.00 0.00 0.00 0.00 0.00 0.00 0.00 0.00 0.00
0.00 0.00 0.00 0.01 0.01 0.01 0.00 0.00 0.00 0.00 0.00 0.00 0.00 0.00 0.00 0.00 0.00 0.00 0.00 0.00 0.00 0.00 0.00 0.00 0.00 0.01 0.01 0.01 0.01 0.01 0.01 0.00 0.00 0.00 0.00 0.00 0.00 0.00 0.00 0.00 0.00 0.00 0.00 0.00
0.00 0.00 0.00 0.01 0.01 0.01 0.00 0.00 0.00 0.00 0.00 0.00 0.00 0.00 0.00 0.00 0.00 0.00 0.00 0.00 0.00 0.00 0.00 0.00 0.00 0.00 0.01 0.01 0.01 0.01 0.01 0.00 0.00 0.00 0.00 0.00 0.00 0.00 0.00 0.00 0.00 0.00 0.00 0.00
0.00 0.00 0.00 0.00 0.01 0.00 0.00 0.00 0.00 0.00 0.00 0.00 0.00 0.00 0.00 0.00 0.00 0.00 0.00 0.00 0.00 0.00 0.00 0.00 0.00 0.00 0.00 0.00 0.00 0.00 0.00 0.00 0.00 0.00 0.00 0.00 0.00 0.00 0.00 0.00 0.00 0.00 0.00 0.00
0.00 0.00 0.00 0.00 0.00 0.00 0.00 0.00 0.00 0.00 0.00 0.00 0.00 0.00 0.00 0.00 0.00 0.00 0.00 0.00 0.00 0.00 0.00 0.00 0.00 0.00 0.00 0.00 0.00 0.00 0.00 0.00 0.00 0.00 0.00 0.00 0.00 0.00 0.00 0.00 0.00 0.00 0.00 0.00
0.00 0.00 0.00 0.00 0.00 0.00 0.00 0.01 0.01 0.00 0.00 0.00 0.00 0.00 0.00 0.00 0.00 0.00 0.00 0.00 0.00 0.00 0.00 0.00 0.00 0.00 0.00 0.00 0.00 0.00 0.00 0.00 0.00 0.00 0.00 0.00 0.00 0.00 0.00 0.00 0.00 0.00 0.00 0.00
0.00 0.00 0.00 0.00 0.00 0.00 0.00 0.01 0.01 0.00 0.00 0.00 0.00 0.00 0.00 0.00 0.00 0.00 0.00 0.00 0.00 0.00 0.00 0.00 0.00 0.00 0.00 0.00 0.00 0.00 0.00 0.00 0.00 0.00 0.00 0.00 0.00 0.00 0.00 0.00 0.00 0.00 0.00 0.00
0.00 0.00 0.00 0.00 0.00 0.00 0.00 0.00 0.00 0.00 0.00 0.00 0.00 0.00 0.00 0.00 0.00 0.00 0.00 0.00 0.00 0.00 0.00 0.00 0.00 0.00 0.00 0.00 0.00 0.00 0.00 0.00 0.00 0.00 0.00 0.00 0.00 0.00 0.00 0.00 0.00 0.00 0.00 0.00
0.00 0.00 0.00 0.00 0.00 0.00 0.00 0.00 0.00 0.00 0.00 0.00 0.00 0.00 0.00 0.00 0.00 0.00 0.00 0.00 0.00 0.00 0.00 0.00 0.01 0.01 0.01 0.00 0.00 0.00 0.00 0.00 0.00 0.00 0.00 0.00 0.00 0.00 0.00 0.00 0.00 0.00 0.00 0.00
0.00 0.00 0.00 0.00 0.00 0.00 0.00 0.00 0.00 0.00 0.00 0.00 0.00 0.00 0.00 0.00 0.00 0.00 0.00 0.01 0.01 0.01 0.01 0.00 0.00 0.00 0.00 0.00 0.00 0.00 0.00 0.00 0.00 0.00 0.00 0.01 0.01 0.01 0.01 0.01 0.01 0.00 0.01 0.01
0.00 0.00 0.00 0.00 0.00 0.00 0.00 0.00 0.00 0.01 0.01 0.00 0.00 0.00 0.00 0.00 0.00 0.00 0.01 0.01 0.01 0.01 0.01 0.01 0.00 0.00 0.00 0.00 0.00 0.00 0.00 0.00 0.00 0.01 0.01 0.01 0.01 0.01 0.01 0.01 0.01 0.01 0.01 0.01
0.00 0.00 0.00 0.00 0.00 0.00 0.00 0.00 0.00 0.01 0.01 0.01 0.00 0.00 0.00 0.00 0.00 0.00 0.00 0.00 0.01 0.01 0.01 0.00 0.01 0.01 0.01 0.00 0.00 0.00 0.00 0.00 0.00 0.00 0.00 0.00 0.01 0.01 0.01 0.01 0.01 0.01 0.01 0.01
MSLP
1014.23 1014.67 1015.16 1015.68 1016.21 1016.72 1017.16 1017.53 1017.82 1018.04 1018.21 1018.37 1018.56 1018.80 1019.13 1019.53 1020.00 1020.50 1021.00 1021.44 1021.81 1022.08 1022.24 1022.32 1022.35 1022.35 1022.36 1022.39 1022.47 1022.58 1022.72 1022.85 1022.97 1023.04 1023.08 1023.05 1022.99 1022.88 1022.76 1022.62 1022.46 1022.29 1022.10 1021.88
1014.10 1014.47 1014.84 1015.23 1015.60 1015.97 1016.32 1016.66 1016.98 1017.29 1017.61 1017.96 1018.34 1018.77 1019.24 1019.73 1020.23 1020.70 1021.12 1021.47 1021.72 1021.89 1021.98 1022.01 1022.02 1022.04 1022.08 1022.15 1022.27 1022.41 1022.57 1022.72 1022.84 1022.92 1022.95 1022.94 1022.88 1022.79 1022.67 1022.55 1022.41 1022.25 1022.07 1021.85
1014.26 1014.55 1014.81 1015.05 1015.29 1015.53 1015.80 1016.09 1016.42 1016.81 1017.25 1017.74 1018.28 1018.84 1019.41 1019.96 1020.46 1020.89 1021.23 1021.47 1021.62 1021.69 1021.71 1021.71 1021.71 1021.73 1021.80 1021.91 1022.05 1022.22 1022.39 1022.54 1022.65 1022.72 1022.74 1022.71 1022.65 1022.56 1022.46 1022.35 1022.22 1022.09 1021.92 1021.73
1014.72 1014.92 1015.07 1015.19 1015.30 1015.42 1015.60 1015.84 1016.18 1016.61 1017.12 1017.71 1018.35 1018.99 1019.61 1020.17 1020.65 1021.02 1021.28 1021.43 1021.50 1021.50 1021.47 1021.44 1021.43 1021.47 1021.55 1021.68 1021.85 1022.02 1022.18 1022.31 1022.40 1022.45 1022.44 1022.40 1022.33 1022.24 1022.15 1022.06 1021.96 1021.84 1021.71 1021.54
1015.35 1015.48 1015.53 1015.53 1015.53 1015.56 1015.66 1015.85 1016.17 1016.62 1017.17 1017.80 1018.48 1019.16 1019.80 1020.35 1020.79 1021.11 1021.30 1021.38 1021.38 1021.33 1021.27 1021.23 1021.23 1021.27 1021.37 1021.51 1021.67 1021.83 1021.97 1022.07 1022.13 1022.14 1022.11 1022.05 1021.97 1021.89 1021.82 1021.74 1021.67 1021.58 1021.48 1021.34
1015.99 1016.04 1016.01 1015.93 1015.84 1015.79 1015.84 1016.00 1016.30 1016.74 1017.31 1017.96 1018.65 1019.34 1019.96 1020.49 1020.89 1021.16 1021.31 1021.35 1021.31 1021.24 1021.17 1021.12 1021.12 1021.18 1021.28 1021.41 1021.55 1021.68 1021.78 1021.84 1021.86 1021.83 1021.78 1021.71 1021.64 1021.57 1021.51 1021.47 1021.42 1021.37 1021.30 1021.19
1016.44 1016.43 1016.35 1016.21 1016.08 1016.00 1016.01 1016.16 1016.46 1016.90 1017.47 1018.12 1018.82 1019.49 1020.10 1020.61 1020.99 1021.23 1021.35 1021.37 1021.32 1021.25 1021.18 1021.14 1021.14 1021.19 1021.27 1021.38 1021.48 1021.57 1021.63 1021.64 1021.62 1021.57 1021.50 1021.43 1021.37 1021.32 1021.30 1021.28 1021.27 1021.25 1021.20 1021.12
1016.59 1016.55 1016.43 1016.28 1016.14 1016.06 1016.09 1016.26 1016.57 1017.03 1017.61 1018.27 1018.97 1019.64 1020.24 1020.73 1021.10 1021.33 1021.45 1021.48 1021.44 1021.37 1021.31 1021.27 1021.27 1021.30 1021.35 1021.42 1021.48 1021.51 1021.52 1021.50 1021.44 1021.38 1021.31 1021.25 1021.20 1021.19 1021.19 1021.21 1021.23 1021.23 1021.21 1021.14
1016.41 1016.35 1016.24 1016.11 1016.00 1015.97 1016.05 1016.26 1016.62 1017.12 1017.73 1018.40 1019.11 1019.78 1020.38 1020.87 1021.24 1021.49 1021.62 1021.66 1021.64 1021.59 1021.54 1021.50 1021.48 1021.48 1021.49 1021.51 1021.51 1021.50 1021.46 1021.40 1021.33 1021.26 1021.20 1021.16 1021.15 1021.16 1021.20 1021.24 1021.28 1021.30 1021.28 1021.23
1015.97 1015.91 1015.83 1015.75 1015.72 1015.76 1015.92 1016.21 1016.63 1017.18 1017.82 1018.53 1019.24 1019.92 1020.53 1021.03 1021.41 1021.67 1021.83 1021.89 1021.89 1021.86 1021.81 1021.76 1021.71 1021.68 1021.65 1021.61 1021.56 1021.50 1021.43 1021.35 1021.28 1021.21 1021.17 1021.16 1021.17 1021.21 1021.27 1021.33 1021.37 1021.39 1021.37 1021.31
1015.40 1015.38 1015.35 1015.34 1015.39 1015.53 1015.78 1016.15 1016.65 1017.25 1017.93 1018.66 1019.38 1020.07 1020.68 1021.19 1021.58 1021.86 1022.04 1022.12 1022.13 1022.11 1022.06 1021.99 1021.92 1021.85 1021.78 1021.69 1021.61 1021.51 1021.42 1021.33 1021.26 1021.21 1021.19 1021.20 1021.23 1021.29 1021.35 1021.40 1021.43 1021.43 1021.39 1021.31
1014.88 1014.90 1014.94 1015.01 1015.15 1015.38 1015.72 1016.17 1016.72 1017.36 1018.07 1018.80 1019.53 1020.21 1020.81 1021.32 1021.71 1022.00 1022.18 1022.28 1022.31 1022.28 1022.22 1022.15 1022.05 1021.95 1021.84 1021.73 1021.61 1021.50 1021.40 1021.31 1021.25 1021.21 1021.21 1021.23 1021.27 1021.32 1021.36 1021.39 1021.38 1021.35 1021.27 1021.16
1014.52 1014.59 1014.69 1014.84 1015.07 1015.38 1015.79 1016.29 1016.88 1017.54 1018.24 1018.97 1019.67 1020.32 1020.90 1021.39 1021.77 1022.05 1022.23 1022.33 1022.36 1022.34 1022.28 1022.19 1022.08 1021.96 1021.83 1021.70 1021.57 1021.45 1021.35 1021.27 1021.22 1021.19 1021.19 1021.21 1021.23 1021.25 1021.26 1021.24 1021.18 1021.09 1020.96 1020.82
1014.36 1014.48 1014.64 1014.86 1015.15 1015.52 1015.97 1016.50 1017.10 1017.75 1018.44 1019.12 1019.78 1020.38 1020.92 1021.37 1021.72 1021.99 1022.16 1022.26 1022.29 1022.26 1022.20 1022.11 1022.00 1021.87 1021.74 1021.61 1021.48 1021.37 1021.28 1021.20 1021.16 1021.12 1021.11 1021.10 1021.09 1021.06 1021.01 1020.92 1020.80 1020.64 1020.47 1020.28
1014.36 1014.52 1014.74 1015.02 1015.35 1015.76 1016.23 1016.76 1017.34 1017.96 1018.59 1019.22 1019.82 1020.37 1020.85 1021.25 1021.57 1021.81 1021.97 1022.06 1022.09 1022.07 1022.02 1021.93 1021.83 1021.72 1021.60 1021.48 1021.36 1021.26 1021.17 1021.10 1021.05 1021.00 1020.96 1020.91 1020.84 1020.74 1020.62 1020.45 1020.26 1020.05 1019.82 1019.61
1014.40 1014.62 1014.88 1015.20 1015.57 1015.99 1016.46 1016.98 1017.52 1018.09 1018.67 1019.23 1019.76 1020.25 1020.68 1021.03 1021.32 1021.53 1021.68 1021.77 1021.80 1021.80 1021.75 1021.69 1021.60 1021.51 1021.41 1021.32 1021.22 1021.13 1021.05 1020.97 1020.90 1020.82 1020.73 1020.63 1020.49 1020.32 1020.12 1019.89 1019.63 1019.36 1019.10 1018.86
1014.37 1014.64 1014.95 1015.30 1015.69 1016.12 1016.58 1017.07 1017.58 1018.10 1018.62 1019.12 1019.59 1020.02 1020.39 1020.71 1020.97 1021.17 1021.31 1021.39 1021.44 1021.45 1021.43 1021.39 1021.34 1021.28 1021.21 1021.14 1021.06 1020.99 1020.91 1020.82 1020.72 1020.60 1020.46 1020.29 1020.09 1019.85 1019.58 1019.28 1018.98 1018.67 1018.38 1018.12
1014.21 1014.52 1014.87 1015.25 1015.66 1016.09 1016.53 1017.00 1017.47 1017.94 1018.41 1018.86 1019.28 1019.66 1020.00 1020.29 1020.53 1020.72 1020.85 1020.95 1021.01 1021.05 1021.06 1021.05 1021.04 1021.01 1020.98 1020.94 1020.88 1020.82 1020.74 1020.64 1020.51 1020.35 1020.16 1019.93 1019.67 1019.37 1019.04 1018.70 1018.36 1018.03 1017.73 1017.47
1013.89 1014.24 1014.63 1015.03 1015.45 1015.87 1016.31 1016.75 1017.19 1017.62 1018.05 1018.46 1018.84 1019.19 1019.50 1019.77 1020.00 1020.18 1020.33 1020.44 1020.52 1020.58 1020.62 1020.65 1020.68 1020.69 1020.70 1020.69 1020.66 1020.61 1020.54 1020.42 1020.28 1020.08 1019.85 1019.57 1019.26 1018.92 1018.56 1018.19 1017.83 1017.49 1017.20 1016.95
1013.46 1013.86 1014.28 1014.69 1015.12 1015.54 1015.95 1016.37 1016.77 1017.18 1017.57 1017.94 1018.29 1018.62 1018.91 1019.16 1019.38 1019.56 1019.71 1019.83 1019.93 1020.02 1020.09 1020.16 1020.23 1020.29 1020.33 1020.36 1020.37 1020.34 1020.27 1020.16 1020.00 1019.78 1019.52 1019.21 1018.87 1018.50 1018.12 1017.75 1017.39 1017.06 1016.77 1016.53
1013.05 1013.48 1013.91 1014.34 1014.75 1015.15 1015.55 1015.93 1016.30 1016.66 1017.02 1017.36 1017.68 1017.97 1018.24 1018.47 1018.68 1018.85 1019.00 1019.12 1019.24 1019.35 1019.45 1019.56 1019.66 1019.76 1019.85 1019.92 1019.96 1019.97 1019.92 1019.82 1019.66 1019.44 1019.17 1018.85 1018.49 1018.11 1017.73 1017.35 1017.00 1016.68 1016.40 1016.17
1012.74 1013.19 1013.63 1014.05 1014.44 1014.81 1015.16 1015.50 1015.83 1016.14 1016.45 1016.74 1017.02 1017.28 1017.51 1017.72 1017.90 1018.05 1018.19 1018.31 1018.43 1018.55 1018.68 1018.81 1018.96 1019.10 1019.24 1019.35 1019.44 1019.48 1019.46 1019.38 1019.24 1019.03 1018.76 1018.44 1018.08 1017.71 1017.33 1016.96 1016.61 1016.30 1016.03 1015.80
1012.60 1013.06 1013.48 1013.88 1014.23 1014.56 1014.86 1015.14 1015.40 1015.66 1015.91 1016.14 1016.37 1016.58 1016.76 1016.93 1017.08 1017.20 1017.32 1017.43 1017.54 1017.66 1017.80 1017.96 1018.13 1018.31 1018.48 1018.64 1018.77 1018.85 1018.87 1018.83 1018.71 1018.52 1018.26 1017.96 1017.61 1017.24 1016.87 1016.51 1016.17 1015.86 1015.59 1015.36
1012.63 1013.08 1013.48 1013.83 1014.14 1014.40 1014.63 1014.84 1015.04 1015.23 1015.41 1015.58 1015.75 1015.89 1016.03 1016.15 1016.25 1016.34 1016.42 1016.51 1016.60 1016.72 1016.86 1017.03 1017.22 1017.42 1017.63 1017.82 1017.98 1018.10 1018.16 1018.14 1018.05 1017.88 1017.65 1017.36 1017.03 1016.68 1016.31 1015.96 1015.62 1015.31 1015.04 1014.79
1012.77 1013.19 1013.55 1013.85 1014.09 1014.29 1014.45 1014.60 1014.72 1014.84 1014.95 1015.07 1015.17 1015.26 1015.34 1015.41 1015.47 1015.51 1015.56 1015.62 1015.69 1015.79 1015.92 1016.09 1016.28 1016.49 1016.71 1016.92 1017.11 1017.24 1017.32 1017.33 1017.27 1017.12 1016.91 1016.64 1016.33 1015.99 1015.64 1015.29 1014.96 1014.65 1014.37 1014.11
1012.91 1013.30 1013.61 1013.85 1014.03 1014.16 1014.26 1014.34 1014.41 1014.47 1014.53 1014.59 1014.64 1014.69 1014.73 1014.76 1014.78 1014.79 1014.80 1014.83 1014.87 1014.95 1015.05 1015.20 1015.37 1015.57 1015.79 1015.99 1016.17 1016.32 1016.40 1016.42 1016.37 1016.24 1016.05 1015.80 1015.51 1015.19 1014.86 1014.52 1014.20 1013.90 1013.62 1013.36
1012.97 1013.30 1013.55 1013.74 1013.87 1013.95 1014.00 1014.04 1014.06 1014.09 1014.12 1014.15 1014.18 1014.20 1014.22 1014.22 1014.21 1014.20 1014.18 1014.18 1014.19 1014.23 1014.31 1014.41 1014.55 1014.72 1014.90 1015.07 1015.23 1015.35 1015.42 1015.44 1015.38 1015.27 1015.09 1014.86 1014.60 1014.30 1014.00 1013.70 1013.40 1013.12 1012.86 1012.62
Thickness
5685 5693 5695 5695 5696 5697 5689 5682 5671 5670 5668 5667 5664 5661 5656 5650 5642 5637 5631 5626 5621 5616 5611 5605 5601 5597 5592 5588 5584 5581 5577 5573 5570 5568 5566 5564 5561 5559 5557 5556 5555 5554 5553 5552
5680 5691 5691 5688 5693 5694 5690 5685 5677 5671 5664 5668 5663 5658 5651 5646 5640 5633 5628 5623 5618 5612 5607 5602 5597 5593 5588 5584 5580 5576 5573 5569 5567 5564 5561 5559 5557 5554 5552 5551 5549 5549 5547 5547
5662 5679 5681 5668 5679 5684 5680 5680 5675 5663 5662 5662 5655 5650 5645 5641 5637 5632 5626 5620 5615 5610 5605 5600 5595 5590 5584 5580 5576 5572 5569 5566 5563 5560 5557 5555 5553 5550 5547 5546 5545 5544 5543 5543
5656 5663 5651 5665 5685 5686 5677 5673 5674 5669 5664 5659 5654 5648 5643 5639 5633 5628 5623 5617 5611 5607 5602 5597 5592 5586 5581 5577 5573 5569 5566 5563 5561 5558 5555 5552 5549 5546 5544 5542 5541 5540 5540 5540
5649 5649 5653 5667 5677 5677 5669 5660 5667 5663 5659 5653 5648 5640 5635 5635 5631 5625 5620 5614 5608 5604 5599 5594 5588 5583 5578 5573 5569 5567 5564 5562 5559 5556 5553 5549 5546 5544 5542 5541 5539 5539 5539 5538
5649 5646 5644 5660 5678 5684 5671 5650 5662 5661 5654 5648 5642 5629 5628 5631 5627 5622 5616 5610 5605 5600 5595 5589 5584 5580 5575 5570 5567 5564 5563 5561 5558 5555 5552 5549 5546 5544 5542 5541 5539 5538 5538 5537
5646 5643 5649 5669 5678 5679 5653 5649 5659 5658 5652 5645 5639 5635 5631 5627 5622 5617 5612 5606 5602 5597 5591 5586 5582 5577 5572 5568 5565 5564 5562 5559 5557 5554 5551 5549 5546 5544 5542 5540 5539 5538 5537 5537
5644 5639 5645 5672 5672 5662 5658 5662 5659 5654 5649 5643 5638 5633 5628 5623 5617 5612 5607 5603 5598 5592 5587 5583 5580 5576 5571 5567 5566 5564 5561 5558 5556 5553 5552 5550 5547 5544 5543 5540 5538 5537 5536 5536
5650 5649 5661 5669 5668 5668 5665 5659 5655 5650 5646 5641 5635 5629 5624 5618 5613 5609 5605 5600 5596 5590 5585 5581 5578 5575 5570 5568 5566 5563 5560 5557 5555 5553 5551 5549 5547 5544 5542 5540 5538 5537 5535 5534
5653 5657 5662 5665 5666 5664 5663 5658 5654 5650 5644 5639 5632 5626 5620 5614 5609 5605 5601 5597 5592 5588 5583 5579 5577 5574 5571 5569 5566 5563 5559 5556 5554 5552 5550 5549 5547 5546 5543 5541 5539 5539 5538 5537
5651 5656 5659 5660 5661 5660 5658 5656 5651 5646 5642 5636 5630 5623 5618 5612 5607 5603 5599 5594 5590 5586 5582 5579 5577 5574 5571 5569 5566 5562 5559 5556 5554 5553 5551 5549 5548 5546 5546 5545 5544 5542 5542 5541
5651 5658 5655 5654 5658 5659 5655 5651 5647 5643 5637 5633 5629 5622 5617 5611 5606 5601 5597 5593 5589 5585 5582 5579 5576 5574 5572 5570 5567 5563 5559 5557 5555 5554 5552 5550 5549 5549 5550 5549 5549 5549 5548 5546
5668 5666 5662 5661 5659 5658 5653 5650 5647 5642 5637 5631 5626 5622 5616 5610 5605 5601 5597 5593 5590 5586 5583 5580 5577 5575 5573 5571 5568 5565 5561 5559 5557 5556 5555 5553 5552 5551 5550 5552 5552 5552 5552 5551
5673 5668 5660 5658 5656 5656 5653 5650 5646 5640 5636 5631 5626 5622 5617 5611 5606 5602 5598 5595 5592 5589 5585 5582 5579 5577 5576 5574 5571 5567 5565 5563 5561 5559 5558 5557 5556 5555 5554 5553 5553 5554 5556 5556
5670 5668 5662 5660 5657 5654 5652 5647 5642 5637 5633 5629 5626 5621 5617 5612 5608 5604 5601 5598 5595 5591 5588 5585 5582 5580 5579 5577 5573 5571 5568 5566 5565 5563 5563 5562 5561 5560 5559 5559 5558 5559 5559 5560
5668 5666 5663 5659 5655 5653 5650 5646 5641 5637 5634 5630 5626 5622 5619 5616 5611 5607 5604 5600 5596 5592 5590 5588 5585 5584 5582 5580 5577 5574 5572 5571 5570 5568 5567 5566 5566 5565 5564 5564 5564 5564 5564 5565
5665 5660 5659 5656 5655 5653 5651 5648 5644 5641 5637 5633 5629 5626 5622 5617 5613 5609 5606 5603 5600 5597 5594 5592 5590 5589 5586 5584 5580 5578 5576 5575 5575 5573 5571 5571 5570 5570 5570 5569 5569 5569 5570 5573
5673 5669 5666 5662 5659 5655 5653 5651 5648 5644 5640 5637 5633 5628 5623 5619 5614 5611 5609 5606 5603 5600 5599 5597 5596 5594 5591 5588 5585 5583 5580 5579 5577 5576 5576 5575 5575 5575 5575 5575 5575 5575 5576 5578
5675 5672 5669 5667 5664 5660 5657 5654 5651 5648 5645 5641 5636 5631 5627 5623 5620 5616 5613 5609 5606 5603 5603 5603 5601 5599 5596 5594 5591 5588 5585 5583 5582 5581 5580 5581 5580 5580 5580 5579 5580 5581 5581 5581
5677 5675 5672 5670 5668 5664 5660 5658 5655 5651 5648 5644 5639 5634 5630 5627 5624 5621 5617 5614 5613 5612 5611 5609 5606 5603 5601 5599 5596 5592 5590 5588 5586 5585 5585 5584 5584 5584 5584 5585 5585 5585 5586 5585
5678 5676 5674 5671 5669 5667 5665 5662 5657 5653 5650 5647 5642 5638 5634 5632 5629 5625 5620 5617 5619 5618 5616 5613 5610 5608 5606 5603 5601 5597 5595 5593 5591 5590 5589 5589 5589 5589 5589 5589 5589 5589 5589 5589
5679 5677 5675 5673 5670 5667 5666 5663 5661 5657 5653 5649 5646 5643 5638 5635 5632 5629 5627 5626 5626 5624 5620 5617 5615 5613 5611 5608 5604 5601 5599 5597 5596 5595 5594 5593 5593 5592 5593 5593 5593 5593 5593 5592
5680 5679 5676 5674 5671 5668 5666 5664 5663 5660 5656 5653 5649 5646 5643 5640 5638 5633 5630 5632 5631 5629 5626 5623 5621 5619 5615 5612 5609 5606 5604 5602 5601 5600 5599 5598 5597 5597 5596 5596 5596 5596 5595 5594
5680 5679 5676 5675 5672 5668 5664 5664 5663 5662 5659 5657 5654 5652 5648 5644 5641 5641 5641 5640 5637 5634 5630 5628 5625 5622 5618 5615 5612 5610 5608 5607 5605 5604 5603 5602 5601 5600 5599 5599 5598 5598 5597 5596
5680 5678 5676 5673 5669 5667 5666 5664 5663 5661 5659 5657 5656 5655 5653 5651 5648 5646 5644 5643 5640 5636 5633 5631 5628 5624 5620 5617 5615 5613 5611 5610 5609 5607 5605 5604 5603 5602 5601 5600 5599 5598 5596 5595
5679 5676 5674 5673 5672 5669 5667 5665 5662 5661 5659 5657 5656 5656 5655 5654 5652 5650 5647 5645 5643 5639 5636 5633 5630 5626 5623 5621 5618 5616 5614 5612 5611 5609 5608 5606 5605 5603 5602 5601 5599 5597 5596 5594
5678 5676 5674 5672 5672 5671 5669 5667 5664 5662 5662 5660 5658 5658 5657 5655 5653 5650 5648 5645 5643 5639 5637 5634 5631 5628 5625 5622 5620 5618 5616 5613 5611 5609 5607 5606 5604 5603 5601 5600 5598 5596 5593 5591